CZ-2D R/B

Satellite information

Favourite Embed

Satellite Type and Status

ROCKET BODYIN ORBIT

Key statistics

Satellite CZ-2D R/B at a glance.

Uptime

569

Days in orbit

Revolutions

≈ 14.3

Per day

Orbit

SSO

Sun Synchronous Orbit

Inclination

98.5

Latest

Satellite identification and parameters

Extended collection of information and parameters for CZ-2D R/B.

Object identification

Identified? True

Debris? False

Object name: CZ-2D R/B

International designator: 2023-159B

Object number (NORAD): 58074

Object ID (CCSDS): 58074

Country: PEOPLES REPUBLIC OF CHINA (PRC)

Current information (Y/N): Y

RCS size: LARGE

Orbital parameters

Period: 100.762 minutes

Inclination: 98.4744 deg

SMA: 7172.858 km

Apoapsis: 866.589 km

Periapsis: 722.857 km

RAAN: 145.0629 deg

Eccentricy: 0.0100192

Argument of periapsis: 50.1271 deg

Mean anomaly: 310.867 deg

Mean motion: 14.29105863 rev/day

Mean motion (dot): 0.00000264 rev/day2

B* drag term: 0.00011422 1/REarth

Two-line elements (TLE)

Creation date: May 6, 2025, 3:54 a.m.

Reference frame: TEME

Reference center: EARTH

Epoch: May 5, 2025, 6:26 p.m. UTC

TLE line 0: 0 CZ-2D R/B

TLE line 1: 1 58074U 23159B 25125.76859621 .00000264 00000-0 11422-3 0 9998

TLE line 2: 2 58074 98.4744 145.0629 0100192 50.1271 310.8670 14.29105863 81214

Live tracking on map

Real-time ground track for satellite CZ-2D R/B.

In-orbit conjunctions

A list of the most updated potential collisions computed for object CZ-2D R/B.

Target Orbit TCA Probability of collision Miss distance Type
IRIDIUM 33 DEB LEO 2025-02-28 15:47:30 0.0001325091 575.0 (m) DEBRIS
DELTA 1 DEB SSO 2025-01-26 01:09:01 0.0003480037 26.0 (m) DEBRIS
SCOUT A DEB SSO 2024-07-23 17:23:33 0.0001215704 115.0 (m) DEBRIS

Associated space launch

The Yunhai-1 satellite is designed for detecting environmental elements in the atmosphere and ocean, the space environment, disaster prevention and reduction, and scientific experimentation. It is made by the Shanghai Institute of Spaceflight Technology.

CZ-2D R/B was lifted into orbit during the mission ‘Long March 2D | Yunhai-1-04’, on board a Long March 2D space rocket.

The launch took place on Oct. 15, 2023, 12:54 a.m. from Launch Area 4 (SLS-2 / 603).

For more information about the launch, click the button.

Launch to space Long March 2D | Yunhai-1-04
Long March 2D | Yunhai-1-04

Agency: N/A

Status: Launch Successful

Launch date: Oct. 15, 2023, 12:54 a.m. UTC

Rocket: Long March 2D

Launch pad: Launch Area 4 (SLS-2 / 603)

Location: Jiuquan Satellite Launch Center, People's Republic of China

...

Latest news about this satellite

News about space launch
China launches new Yunhai remote sensing satellite

China added to its series of Yunhai remote sensing satellites late Saturday with a launch from the Gobi Desert.


Newsletter sign-up

Weekly statistics, charts and insights to help you stay on top of the space industry.